Location: Rounton
(54.4000°N, 1.3500°W)
Time: 20:34:48
(UTC+00:00)

A-11 Canister half - Pass Details

Date: 30 November 2021
Orbit: 1516 x 1684 km, 47.2° (Epoch: 19 January)

Event Time Altitude Azimuth Distance (km) Brightness Sun altitude
Rises 08:44:25 0° 228° (SW) 4,799 11.6 3.7°
Reaches altitude 10° 08:47:39 10° 222° (SW) 3,839 11.2 4.1°
Maximum altitude 08:56:45 45° 155° (SSE) 2,150 10.7 4.9°
Drops below altitude 10° 09:06:06 10° 87° (E) 3,943 11.7 5.8°
Sets 09:09:27 0° 82° (E) 4,939 12.1 6.1°
